This is the latest recevied weather packets stored in our database for station/object HS5XHC-1. If no packets are shown the sender has not sent any weather packets the latest 10 day(s).
| Time | Temp. | Humidity | Pressure | Rain* | Wind** | Luminosity | Snow |
|---|---|---|---|---|---|---|---|
| 1777817032 | 29.44° C | 48% | 966 hPa | - | - | 0 W/m² | - |
| 1777816408 | 30.56° C | 45% | 966 hPa | - | - | 0 W/m² | - |
| 1777815783 | 30° C | 46% | 965 hPa | - | - | 0 W/m² | - |
| 1777815160 | 30° C | 44% | 965 hPa | - | - | 0 W/m² | - |
| 1777814536 | 30° C | 46% | 965 hPa | - | - | 0 W/m² | - |
| 1777813912 | 30° C | 45% | 965 hPa | - | - | 0 W/m² | - |
| 1777813288 | 30.56° C | 43% | 965 hPa | - | - | 0 W/m² | - |
| 1777812664 | 30.56° C | 41% | 965 hPa | - | - | 0 W/m² | - |
| 1777812040 | 31.11° C | 41% | 964 hPa | - | - | 0 W/m² | - |
| 1777811416 | 30.56° C | 41% | 964 hPa | - | - | 0 W/m² | - |
| 1777810792 | 30° C | 42% | 964 hPa | - | - | 0 W/m² | - |
| 1777810168 | 30° C | 42% | 964 hPa | - | - | 0 W/m² | - |
| 1777809544 | 30° C | 41% | 964 hPa | - | - | 0 W/m² | - |
| 1777808920 | 30.56° C | 40% | 964 hPa | - | - | 0 W/m² | - |
| 1777808296 | 31.11° C | 37% | 964 hPa | - | - | 0 W/m² | - |
| 1777807671 | 32.78° C | 33% | 964 hPa | - | - | 0 W/m² | - |
| 1777807047 | 33.89° C | 30% | 964 hPa | - | - | 0 W/m² | - |
| 1777806423 | 35.56° C | 30% | 963 hPa | - | - | 0 W/m² | - |
| 1777805799 | 35° C | 32% | 963 hPa | - | - | 0 W/m² | - |
| 1777805175 | 36.11° C | 31% | 963 hPa | - | - | 0 W/m² | - |
| 1777804551 | 36.11° C | 31% | 963 hPa | - | - | 0 W/m² | - |
| 1777803927 | 35° C | 31% | 963 hPa | - | - | 0 W/m² | - |
| 1777803303 | 35.56° C | 29% | 962 hPa | - | - | 0 W/m² | - |
| 1777802679 | 35.56° C | 29% | 962 hPa | - | - | 0 W/m² | - |
| 1777802055 | 37.22° C | 26% | 962 hPa | - | - | 0 W/m² | - |
* Rain since midnight (hover to see other rain measurements)
** Current wind speed in m/s (hover to see current wind gust speed)